sat.trackr.live / text

‹ back to catalog

ONEWEB-0018

NORAD 45434 · 2020-020L

PAYLOAD ACTIVE UNKNOWN

§ Identity

Operator
Country
UK
Launch date
2020-03-21
Launch site
TYMSC
Launch vehicle
Mass (kg)
RCS (m²)

Purposes: comms

External: N2YO · Heavens-Above · Gunter

§ Orbital elements

Epoch: 2026-09-03T10:07:39.034848Z

Period
109.80 min
Inclination
87.8956°
Eccentricity
0.0002177
Mean motion
13.11417770 rev/d
Perigee alt
1,216.0 km
Apogee alt
1,219.3 km
Semi-major
7,595.8 km
B*
-4.3044e-4
RAAN
5.5063°
Arg perigee
97.6960°
Mean anomaly
262.4415°
Rev number
31,288

§ Raw data

ONEWEB-00181 45434U 20020L   26246.42197957 -.00000140  00000+0 -43044-3 0  99922 45434  87.8956   5.5063 0002177  97.6960 262.4415 13.11417770312886

JSON: /api/v1/satellites/45434 · /tle

For live sub-satellite position, see the globe view (requires WebGL).

§ Visibility from observer

Set your observer location to see the next 7 days of passes ≥ 10°. The values pass through the URL so the page stays shareable.

No JS? Fill the form by hand. The geolocation button needs JavaScript.